Location: McFarlands Corners
(41.4117°N, 81.3382°W)
Time: 19:40:19
(UTC+00:00)

Vanguard 3 - Pass Details

Date: 17 November 2024
Orbit: 507 x 3221 km, 33.4° (Epoch: 03 December)

Event Time Altitude Azimuth Distance (km) Brightness Sun altitude
Rises 23:45:15 0° 275° (W) 5,542 12.9 -19.0°
Reaches altitude 10° 23:51:58 10° 252° (WSW) 3,820 11.7 -20.2°
Maximum altitude 23:55:43 13° 229° (SW) 3,167 10.9 -20.9°
Drops below altitude 10° 23:58:49 10° 205° (SSW) 3,022 10.5 -21.5°
Sets 00:02:51 0° 176° (S) 3,504 10.5 -22.3°
